Location: Unspecified
(0.0000°N, 0.0000°E)
Time: 05:52:05
(UTC+00:00)

AAUSAT CUBESAT 2 - Pass Details

Date: 17 July 2020
Orbit: 574 x 589 km, 97.5° (Epoch: 13 August)

Event Time Altitude Azimuth Distance (km) Brightness Sun altitude
Rises 04:46:13 0° 46° (NE) 2,804 ? -18.6°
Reaches altitude 10° 04:49:29 10° 74° (ENE) 1,905 ? -17.9°
Maximum altitude 04:51:22 13° 102° (ESE) 1,726 ? -17.4°
Drops below altitude 10° 04:53:14 10° 129° (SE) 1,906 ? -17.0°
Sets 04:56:29 0° 157° (SSE) 2,806 ? -16.2°
